Regional Weather Roundup
Issued by NWS

Home | Current Version | Previous Version | Text Only | Print | Product List | Glossary On
Versions: 1 2 3 4 5 6 7 8 9 10 11 12 13 14 15 16 17 18 19 20 21 22 23 24 25 26 27 28 29 30 31 32 33 34 35 36 37 38 39 40 41 42 43 44 45 46 47 48 49 50
000
ASUS43 KTOP 310508
RWRKS

WEATHER ROUNDUP FOR KANSAS
NATIONAL WEATHER SERVICE GOODLAND KS
1200 AM CDT MON AUG 31 2015

NOTE:  "FAIR" INDICATES FEW OR NO CLOUDS BELOW 12,000 FEET WITH NO
SIGNIFICANT WEATHER AND/OR OBSTRUCTIONS TO VISIBILITY.

KSZ001>006-013>018-027>032-041>047-310600-
NORTHWEST KANSAS

CITY           SKY/WX    TMP DP  RH WIND       PRES   REMARKS
GOODLAND       CLEAR     65  46  50 S12       29.98S
HAYS           CLEAR     66  55  68 SE9       29.96F
HILL CITY      CLEAR     70  59  68 SE6       29.95F
RUSSELL        CLEAR     68  62  81 SE9       29.95F
$$

KSZ061>065-074>080-084>089-310600-
SOUTHWEST KANSAS

CITY           SKY/WX    TMP DP  RH WIND       PRES   REMARKS
DODGE CITY     CLEAR     65  57  75 SE10      29.98S
ELKHART          N/A     66  51  58 S9          N/A
GARDEN CITY    CLEAR     65  56  72 SE10      29.97S
GREAT BEND     CLEAR     66  61  82 SE7       29.96F
LIBERAL        CLEAR     68  48  49 SE9       29.98F
PRATT          CLEAR     68  61  77 CALM      29.98F
$$

KSZ066>073-081>083-090>101-310600-
SOUTHEAST KANSAS

CITY           SKY/WX    TMP DP  RH WIND       PRES   REMARKS
CHANUTE        CLEAR     71  69  93 CALM      29.96F
COFFEYVILLE    CLEAR     72  72 100 CALM      29.95S FOG
HUTCHINSON     CLEAR     68  63  84 SE7       29.96F
MEDICINE LODGE   N/A     73  66  78 SE7       29.95S
NEWTON         CLEAR     68  61  77 SE7       29.99F
PARSONS        LGT RAIN  71  70  96 CALM      29.96S FOG
WICHITA INTL   CLEAR     73  68  84 SE8       29.95F
WICHITA JABRA  CLEAR     72  67  84 SE3       29.97S
WICHITA MCCONL CLEAR     72  67  83 E7        29.96S
WINFIELD       CLEAR     72  69  90 E7        29.97S
$$

KSZ007>012-019>026-033>040-048>060-102>105-310600-
NORTHEAST KANSAS

CITY           SKY/WX    TMP DP  RH WIND       PRES   REMARKS
CONCORDIA      CLEAR     67  65  93 SE9       29.97S
EMPORIA        CLEAR     67  66  97 SW3       29.97F
LAWRENCE       PTCLDY    67  65  93 NW3       29.97S
MANHATTAN      PTCLDY    67  66  97 CALM      29.96F FOG
MARYSVILLE     CLEAR    N/A N/A N/A SE5       29.97F
OLATHE IND     CLEAR     72  69  90 E3        29.98F
OLATHE EXE     PTCLDY    74  71  91 E5        29.97F
SALINA         CLEAR     70  64  81 SE6       29.95F
TOPEKA BILLARD FOG       68  67  96 CALM      29.96F VSB 3/4
TOPEKA FORBES  PTCLDY    70  67  90 CALM      29.97F FOG
$$


USA.gov is the U.S. government's official web portal to all federal, state and local government web resources and services.